TimeEDT,TemperatureF,Dew PointF,Humidity,Sea Level PressureIn,VisibilityMPH,Wind Direction,Wind SpeedMPH,Gust SpeedMPH,PrecipitationIn,Events,Conditions,WindDirDegrees,DateUTC
12:11 AM,55.4,53.6,94,30.15,10.0,Calm,Calm,-,N/A,Rain,Light Rain,0,2013-10-15 04:11:00
12:19 AM,55.4,53.6,94,30.15,10.0,Calm,Calm,-,N/A,,Clear,0,2013-10-15 04:19:00
12:30 AM,55.4,53.6,94,30.15,10.0,Calm,Calm,-,N/A,Rain,Light Rain,0,2013-10-15 04:30:00
12:40 AM,57.2,53.6,88,30.14,10.0,Calm,Calm,-,N/A,,Clear,0,2013-10-15 04:40:00
12:58 AM,56.3,53.4,90,30.14,10.0,Calm,Calm,-,0.00,,Clear,0,2013-10-15 04:58:00
1:09 AM,55.4,53.6,94,30.13,10.0,Calm,Calm,-,N/A,,Light Drizzle,0,2013-10-15 05:09:00
1:21 AM,57.2,53.6,88,30.13,10.0,Calm,Calm,-,N/A,,Clear,0,2013-10-15 05:21:00
1:58 AM,55.9,53.1,90,30.12,10.0,NE,1.2,-,0.00,,Clear,50,2013-10-15 05:58:00
2:58 AM,56.3,52.7,88,30.11,10.0,Calm,Calm,-,N/A,,Clear,0,2013-10-15 06:58:00
3:58 AM,55.2,53.1,92,30.10,10.0,Calm,Calm,-,N/A,,Clear,0,2013-10-15 07:58:00
4:58 AM,57.6,55.2,92,30.09,10.0,ENE,3.5,-,N/A,,Mostly Cloudy,70,2013-10-15 08:58:00
5:58 AM,57.0,55.0,93,30.08,10.0,East,4.6,-,N/A,,Scattered Clouds,100,2013-10-15 09:58:00
6:58 AM,57.0,55.9,96,30.07,10.0,East,4.6,-,N/A,,Mostly Cloudy,100,2013-10-15 10:58:00
7:58 AM,57.0,56.5,98,30.08,5.0,East,4.6,-,N/A,,Mostly Cloudy,90,2013-10-15 11:58:00
8:58 AM,58.3,57.9,99,30.08,8.0,ESE,3.5,-,N/A,,Mostly Cloudy,110,2013-10-15 12:58:00
9:58 AM,61.2,59.5,94,30.09,6.0,ESE,3.5,-,N/A,,Mostly Cloudy,110,2013-10-15 13:58:00
10:58 AM,65.5,61.5,87,30.07,7.0,SSW,8.1,-,N/A,,Overcast,200,2013-10-15 14:58:00
11:58 AM,67.6,61.0,79,30.06,10.0,South,12.7,17.3,N/A,,Mostly Cloudy,190,2013-10-15 15:58:00
12:58 PM,70.0,60.8,73,30.06,10.0,SSW,12.7,-,N/A,,Overcast,210,2013-10-15 16:58:00
1:58 PM,70.7,60.4,70,30.04,10.0,South,11.5,18.4,N/A,,Mostly Cloudy,190,2013-10-15 17:58:00
2:58 PM,71.8,60.8,68,30.02,10.0,SSW,9.2,-,N/A,,Mostly Cloudy,200,2013-10-15 18:58:00
3:58 PM,71.1,60.3,69,30.01,10.0,South,8.1,-,N/A,,Mostly Cloudy,190,2013-10-15 19:58:00
4:38 PM,69.8,60.8,73,30.01,10.0,SSW,5.8,-,N/A,Rain,Light Rain,200,2013-10-15 20:38:00
4:48 PM,69.8,60.8,73,30.01,10.0,South,8.1,-,N/A,,Mostly Cloudy,190,2013-10-15 20:48:00
4:58 PM,69.8,61.0,73,30.01,10.0,South,6.9,-,0.00,,Mostly Cloudy,190,2013-10-15 20:58:00
5:58 PM,69.1,62.1,78,29.99,10.0,South,6.9,-,N/A,,Mostly Cloudy,180,2013-10-15 21:58:00
6:24 PM,68.0,62.6,83,29.97,10.0,SSE,9.2,-,N/A,Rain,Light Rain,150,2013-10-15 22:24:00
6:48 PM,68.0,62.6,83,29.97,10.0,SSE,9.2,-,N/A,,Scattered Clouds,160,2013-10-15 22:48:00
6:58 PM,67.5,62.6,84,29.96,10.0,SSE,10.4,-,0.00,,Scattered Clouds,160,2013-10-15 22:58:00
7:38 PM,68.0,60.8,78,29.97,10.0,South,6.9,-,N/A,,Light Drizzle,180,2013-10-15 23:38:00
7:50 PM,68.0,60.8,78,29.96,10.0,SSE,8.1,-,N/A,,Partly Cloudy,160,2013-10-15 23:50:00
7:58 PM,67.1,61.5,82,29.95,10.0,SSE,8.1,-,0.00,,Clear,150,2013-10-15 23:58:00
8:58 PM,66.0,61.9,86,29.98,10.0,WSW,5.8,-,N/A,,Mostly Cloudy,240,2013-10-16 00:58:00
9:58 PM,64.8,61.5,89,29.98,10.0,South,4.6,-,N/A,,Mostly Cloudy,180,2013-10-16 01:58:00
10:58 PM,65.5,61.3,86,29.97,10.0,SSW,5.8,-,N/A,,Mostly Cloudy,200,2013-10-16 02:58:00
11:58 PM,63.9,61.3,91,29.98,10.0,NW,3.5,-,N/A,,Scattered Clouds,320,2013-10-16 03:58:00
11:59 PM,64.4,60.8,88,29.98,10.0,NW,3.5,-,N/A,,Light Drizzle,310,2013-10-16 03:59:00